Theta_e
345 344 344 345 345 345 347 348 347 346 347 346 344 341 337 340 346 348 346 341 330 322 319 320 319 322 330 331 333 338 335 333 337 337 334 335 334 334 337 336 335 335
346 344 344 344 343 344 346 348 348 346 346 347 344 342 340 338 342 346 344 340 332 324 318 317 318 321 326 328 329 332 334 334 336 337 334 332 333 335 335 335 336 335
346 345 344 343 342 343 344 346 349 347 345 346 344 344 344 341 339 341 341 338 332 324 317 316 319 319 323 331 333 330 332 333 334 336 335 331 333 333 333 335 336 336
347 346 344 343 343 343 344 345 348 348 345 347 346 345 346 344 342 339 337 335 331 322 316 315 320 319 322 334 338 333 330 331 333 336 335 333 334 331 327 331 335 336
347 347 346 345 344 344 344 344 346 345 345 346 347 346 346 344 343 340 335 333 328 320 317 316 319 321 323 332 338 336 331 331 333 334 332 332 332 327 322 324 330 334
347 348 347 346 346 345 345 345 345 345 345 345 346 347 346 344 342 340 336 333 327 320 316 317 320 324 324 326 333 334 330 329 331 329 327 327 325 325 326 325 327 331
348 348 348 348 348 347 347 346 345 345 345 344 345 346 345 344 342 340 338 334 329 322 316 316 320 323 323 323 326 327 324 324 324 321 324 324 322 326 331 330 330 332
348 348 348 348 349 349 349 350 348 346 345 345 347 346 344 343 342 341 339 335 331 324 318 317 318 319 320 321 322 321 320 321 319 320 327 328 323 326 329 329 332 332
349 348 347 348 349 349 350 351 351 349 348 348 350 348 346 345 344 342 340 338 334 327 320 318 317 317 319 320 320 318 319 319 317 321 330 330 323 323 326 327 329 330
349 349 348 347 348 348 348 349 351 351 350 350 351 351 350 348 346 345 344 341 337 330 323 319 317 317 318 319 320 321 321 320 317 320 326 326 322 322 324 325 327 328
348 349 349 348 348 347 346 348 350 353 352 352 352 353 352 350 348 347 346 345 340 332 325 321 318 317 318 319 322 325 325 322 319 318 320 321 322 322 324 325 325 327
346 348 348 348 348 348 348 349 352 356 356 355 354 354 353 352 349 348 347 345 342 335 328 324 320 317 318 320 323 326 326 324 320 319 319 321 322 323 324 326 325 326
344 345 347 347 346 347 349 351 355 358 358 358 358 356 354 353 351 349 347 346 343 338 332 327 322 318 318 320 323 325 325 325 322 319 319 320 321 322 324 326 326 325
344 345 347 347 346 346 349 352 356 358 359 359 359 358 356 355 353 350 349 348 345 341 335 330 323 318 318 320 322 324 325 325 323 320 320 321 321 323 325 326 325 325
346 346 347 346 347 347 348 351 355 358 359 359 359 358 357 356 354 352 351 349 347 343 339 334 325 318 318 319 321 324 325 325 324 321 320 321 323 323 325 327 326 324
350 348 347 347 348 349 348 351 355 358 359 358 358 359 357 356 355 353 352 350 348 346 342 337 328 319 317 318 321 324 324 325 325 322 320 323 325 324 326 328 326 324
353 350 349 348 348 350 351 354 356 358 358 358 358 358 358 357 354 354 353 351 349 347 344 340 331 320 317 319 321 323 323 324 325 322 322 325 326 325 326 327 327 328
356 354 353 352 352 354 357 358 358 359 359 358 358 359 358 358 355 354 353 351 349 347 346 344 336 324 318 318 321 323 323 323 324 323 322 324 323 323 323 325 327 331
358 358 358 358 359 360 360 361 361 360 359 358 359 359 358 358 357 355 353 350 349 348 346 346 341 330 321 318 320 323 323 322 323 323 323 323 322 323 323 323 328 332
362 363 363 363 363 363 362 363 362 360 359 357 357 358 358 359 357 355 354 351 349 348 346 346 343 336 324 318 321 323 322 322 323 324 324 323 323 326 325 324 329 332
365 366 365 364 363 362 363 364 361 359 357 355 356 358 359 359 358 356 354 351 349 348 347 345 343 337 324 318 322 324 322 322 323 324 324 323 325 327 326 327 332 334
367 366 365 364 363 362 363 363 360 358 356 354 356 358 358 358 357 356 355 352 350 348 347 344 341 334 323 320 324 325 322 321 322 323 323 323 325 327 326 328 332 332
366 365 365 364 362 361 362 362 360 357 355 354 356 358 357 357 357 356 355 353 351 349 347 343 337 331 327 327 326 323 321 321 322 323 323 323 324 326 327 330 330 327
364 365 365 363 362 362 362 360 358 356 355 355 356 356 355 355 355 355 355 354 352 349 346 341 336 334 334 333 326 320 320 321 322 323 323 323 323 324 328 331 329 325
365 365 363 361 359 358 357 356 355 355 355 355 355 355 354 353 353 354 354 353 350 347 344 341 338 337 337 333 324 320 321 322 322 323 323 322 323 324 327 330 329 326
365 362 359 356 352 350 352 354 354 354 354 354 353 353 352 352 352 353 353 351 347 344 342 341 339 337 336 332 324 321 323 322 321 322 322 322 324 326 329 332 331 328
Wind_Speed
31 30 29 28 27 25 24 24 23 23 22 21 20 20 20 19 18 16 17 16 13 12 12 11 10 13 15 17 20 19 13 12 12 9 9 10 8 7 7 7 6 8
31 30 30 29 28 27 26 25 25 25 23 21 20 20 19 19 19 19 19 18 14 12 12 11 11 13 15 15 17 18 15 15 16 13 11 11 10 9 10 8 6 7
32 31 31 30 30 29 28 27 26 25 23 22 21 20 19 19 19 20 20 19 17 13 12 11 11 13 15 14 13 14 15 15 16 14 11 10 11 11 10 8 6 6
34 33 32 31 30 30 29 29 28 27 25 24 23 22 21 20 20 20 20 20 18 15 13 12 12 13 14 16 15 12 13 13 13 14 12 10 11 10 9 9 10 9
35 34 33 32 31 30 30 31 30 29 28 26 25 25 24 23 22 22 21 21 19 17 15 13 13 14 14 17 17 14 12 12 13 13 12 11 11 10 7 8 10 11
37 36 35 33 32 31 31 31 31 30 30 29 27 27 26 25 24 24 23 22 20 18 16 15 15 16 15 15 18 17 15 14 14 14 13 12 11 10 8 8 9 10
39 38 37 35 34 33 32 32 31 31 31 30 29 29 28 27 27 27 25 24 22 20 18 17 17 18 17 15 17 18 17 16 16 15 14 13 12 11 10 10 10 10
40 39 38 37 36 34 33 32 32 32 32 31 31 31 30 30 30 29 28 27 25 22 20 20 20 20 19 17 17 18 17 17 17 16 16 14 13 13 13 12 12 13
41 40 39 38 38 36 35 34 33 33 33 33 32 32 32 32 32 32 31 30 28 26 24 23 22 22 21 19 18 17 16 17 18 18 19 17 14 14 14 13 14 15
41 41 40 39 39 38 37 36 36 35 34 34 33 33 33 34 34 33 32 32 31 30 28 27 25 24 23 21 18 15 15 17 19 20 21 19 15 14 15 14 15 15
42 42 41 40 40 39 38 38 37 36 35 35 35 35 34 35 35 35 34 34 34 33 32 31 28 26 25 23 20 17 15 17 20 21 21 20 17 16 16 16 15 15
44 43 42 41 40 39 39 38 37 36 34 32 33 36 36 35 36 36 35 36 36 36 35 34 30 29 28 25 22 20 17 17 20 22 20 20 19 18 18 17 15 15
44 44 43 42 41 40 39 37 36 36 33 30 30 33 35 36 37 36 35 35 36 38 38 36 33 31 29 26 24 21 18 18 22 23 22 22 21 20 19 18 16 15
44 43 42 42 41 40 39 38 36 36 34 32 31 31 31 34 36 37 35 34 36 39 40 38 35 33 30 27 24 21 20 21 22 24 24 24 23 22 21 19 17 16
42 42 41 41 40 40 40 39 38 36 34 34 34 32 31 31 33 35 35 34 35 39 41 40 37 34 32 29 24 23 24 23 23 24 26 26 25 24 21 19 18 17
41 41 40 40 40 40 40 40 39 37 35 35 36 35 33 31 31 34 36 35 36 39 41 41 39 36 34 31 26 25 26 26 24 25 27 27 26 24 21 19 19 18
40 40 39 40 40 40 40 40 39 37 36 35 36 35 34 32 33 36 37 37 37 38 39 40 40 38 36 34 27 24 27 27 25 26 29 28 26 23 21 20 20 18
40 39 39 39 39 39 39 38 37 36 35 35 34 34 34 34 35 37 39 38 37 36 35 37 40 39 38 35 27 23 27 29 27 29 30 28 25 23 23 22 21 18
39 39 38 38 37 37 36 35 35 36 35 34 33 33 34 36 37 38 40 40 38 35 32 33 37 40 39 35 27 23 28 31 30 30 30 27 25 23 23 23 21 19
38 38 37 36 35 34 33 33 34 34 34 32 31 32 34 36 37 38 38 40 40 37 32 32 36 40 40 36 28 24 30 33 31 31 30 27 24 21 21 22 21 19
38 37 35 33 32 30 30 32 33 32 31 27 26 29 33 35 37 38 38 39 39 37 35 34 36 39 41 38 29 27 32 34 32 30 29 28 24 20 19 20 21 19
37 36 34 32 29 27 27 30 31 30 27 25 26 29 32 33 35 38 39 38 38 37 36 35 36 39 42 39 30 28 33 35 32 30 28 28 26 21 18 21 22 21
35 33 31 30 28 26 24 25 28 27 25 25 27 29 29 31 34 36 38 38 38 37 35 35 36 39 41 37 29 29 34 34 32 30 30 30 28 22 19 22 23 23
31 29 29 28 26 24 21 21 23 24 22 24 26 26 26 28 32 34 36 37 36 34 34 35 37 38 38 34 29 31 33 33 31 31 31 32 29 24 22 23 23 24
27 26 27 27 24 21 19 19 20 20 20 21 24 24 24 25 29 31 32 33 31 29 32 35 37 38 37 32 30 31 32 32 32 32 31 30 27 25 25 25 25 25
26 25 25 24 22 19 18 19 19 19 19 20 21 22 23 24 25 26 28 28 27 27 31 35 36 38 35 30 29 31 31 31 31 30 29 27 25 25 26 25 25 25
Wind_Direction
214 215 216 216 214 215 216 216 219 220 219 222 224 229 226 212 200 202 216 226 222 218 213 209 205 190 192 197 189 194 200 177 179 200 195 194 190 177 199 220 227 226
213 215 216 216 214 215 217 216 219 222 221 224 227 229 224 212 202 203 215 226 227 221 217 212 207 202 205 208 199 196 195 183 184 196 198 193 187 187 201 209 226 248
213 215 215 215 215 214 216 217 219 224 224 223 223 224 222 216 209 209 215 223 225 223 223 219 214 210 206 208 210 202 197 195 189 191 202 201 191 193 197 200 219 251
214 216 216 217 217 215 216 217 218 223 224 221 217 218 221 219 215 215 218 222 226 225 224 220 218 215 201 199 213 212 200 198 192 192 206 207 201 206 200 198 209 220
216 217 218 218 219 218 217 217 219 222 223 221 218 217 221 222 220 221 223 225 228 226 221 220 220 217 202 195 207 215 206 201 197 197 205 205 206 220 219 207 213 218
217 218 219 220 220 220 220 219 220 221 222 224 222 220 222 225 227 227 228 229 230 225 222 223 220 214 208 200 204 212 213 207 206 206 207 205 208 218 221 216 223 227
217 218 219 220 220 221 221 220 220 220 222 224 225 223 224 227 229 231 234 235 231 228 227 225 219 213 214 211 207 212 216 212 214 215 208 202 203 209 214 216 226 232
217 218 219 219 219 220 220 220 220 221 222 222 223 225 227 229 230 232 236 238 236 233 231 226 220 215 216 217 214 215 216 215 219 219 212 205 202 205 213 220 225 232
217 219 221 220 220 220 220 221 222 222 222 221 221 223 226 228 231 233 235 238 238 235 232 229 223 217 218 219 217 216 220 223 223 220 215 212 209 210 216 223 228 232
216 218 221 221 221 223 224 224 225 225 224 222 220 220 223 226 228 230 232 235 237 234 231 230 224 220 221 218 213 215 223 228 226 220 217 217 217 217 218 222 229 234
217 218 220 221 221 225 227 227 226 226 226 225 222 220 221 225 227 227 229 232 234 233 232 231 227 224 223 218 215 219 225 227 226 222 218 218 221 222 222 225 227 230
219 218 220 221 221 223 226 226 223 222 224 224 222 221 222 225 229 229 229 231 231 231 231 232 228 224 223 220 218 221 224 225 226 225 220 219 223 225 226 228 228 230
220 219 220 221 223 223 223 223 220 218 219 218 217 220 223 226 229 231 231 230 228 228 230 231 228 224 223 220 216 222 228 226 224 224 221 221 227 228 227 228 230 233
221 220 219 220 223 224 222 221 219 216 217 215 214 217 217 220 227 231 232 230 227 226 229 230 227 225 223 216 214 228 233 225 224 223 221 224 229 229 226 228 232 236
220 220 220 220 222 224 223 222 219 217 216 216 219 219 213 214 224 231 233 232 227 226 228 229 226 225 221 213 218 236 232 221 223 224 221 225 229 229 228 228 233 237
218 219 221 220 221 223 224 222 219 217 216 216 220 221 216 215 220 227 233 232 227 225 226 228 228 225 220 218 228 238 229 220 224 224 221 225 228 229 230 232 236 239
216 218 219 220 221 222 222 221 218 217 216 217 220 221 220 218 217 224 231 232 228 227 228 230 231 227 224 224 231 234 226 222 225 222 220 224 226 227 232 238 242 239
215 216 217 218 219 219 219 219 217 215 215 216 217 219 221 221 219 222 227 229 229 227 227 233 234 231 229 227 228 231 227 224 223 221 221 223 225 228 232 237 242 240
212 213 214 214 214 214 216 217 215 213 213 214 215 218 223 224 223 222 223 226 227 223 224 233 236 234 233 229 227 232 227 221 222 223 224 223 226 233 236 235 240 242
209 210 210 210 211 213 214 215 216 217 217 219 219 220 224 225 223 223 223 224 225 224 228 236 238 238 236 228 229 235 227 220 222 226 226 225 230 243 244 237 238 242
206 206 207 209 211 212 211 214 218 221 223 224 220 217 222 224 222 223 225 225 225 229 235 237 237 238 234 227 232 237 225 220 223 227 229 228 234 251 249 234 234 240
203 204 205 207 209 210 211 214 219 223 224 221 214 213 221 224 222 222 225 227 228 231 235 235 234 234 232 231 236 232 222 221 223 228 232 230 236 253 249 230 231 239
204 205 204 205 208 210 210 213 218 221 220 212 208 214 224 226 225 224 227 229 231 232 234 233 231 231 233 235 233 222 217 220 223 228 234 233 238 249 242 229 234 241
201 200 197 198 203 206 206 209 213 214 213 209 208 216 226 228 226 228 231 233 233 232 231 229 227 230 233 232 224 215 214 218 222 230 235 235 240 245 235 231 239 244
193 191 191 194 200 202 201 204 204 201 206 212 214 218 226 231 229 230 234 234 230 228 229 227 226 228 230 227 219 213 215 219 224 230 234 235 240 241 234 233 240 244
186 189 191 196 202 199 194 199 200 194 200 213 217 217 224 232 233 231 232 230 224 224 227 227 225 225 225 223 220 217 218 222 226 230 233 236 238 235 232 234 238 241